IZ1GCT Weather Reports


time (UTC)temp
C
wind
direction
speed
KPH
gust
KPH
rain 1hr
cm
rain 24hr
cm
rain mn
cm
humidity
%
barometer
mb
20260506214047 10 158 3.2 4.8 0.00 0.48 0.48 72 1014.0
20260506213548 10 135 0.0 1.6 0.00 0.48 0.48 71 1014.0
20260506213048 10 135 3.2 4.8 0.00 0.48 0.48 72 1013.9
20260506212547 10 136 3.2 4.8 0.00 0.48 0.48 71 1014.0
20260506212047 10 153 3.2 4.8 0.00 0.48 0.48 70 1013.8
20260506211548 10 135 3.2 4.8 0.00 0.48 0.48 70 1013.8
20260506211047 10 155 3.2 4.8 0.00 0.48 0.48 67 1013.9
20260506210548 11 146 4.8 8.0 0.00 0.48 0.48 67 1013.9
20260506210048 11 135 3.2 4.8 0.00 0.48 0.48 66 1013.8
20260506205547 11 135 0.0 0.0 0.00 0.48 0.48 64 1013.9
20260506205047 11 135 0.0 1.6 0.00 0.48 0.48 63 1013.8
20260506204548 12 154 3.2 9.7 0.00 0.48 0.48 62 1013.7
20260506204047 12 135 0.0 3.2 0.00 0.48 0.48 58 1013.5
20260506203547 13 112 0.0 0.0 0.00 0.48 0.48 53 1013.5
20260506203047 13 112 1.6 3.2 0.00 0.48 0.48 52 1013.2
20260506202548 13 129 1.6 3.2 0.00 0.48 0.48 50 1013.3
20260506202047 13 135 11.3 12.9 0.00 0.48 0.48 47 1013.2
20260506201547 14 158 3.2 4.8 0.00 0.48 0.48 45 1012.9
20260506201048 15 135 4.8 8.0 0.00 0.48 0.48 44 1012.9
20260506200548 14 135 11.3 14.5 0.00 0.48 0.48 45 1012.7
20260506200047 14 135 8.0 9.7 0.00 0.48 0.48 45 1012.6
20260506195548 14 118 3.2 4.8 0.00 0.48 0.48 45 1012.6
20260506195048 15 158 3.2 4.8 0.00 0.48 0.48 42 1012.5
20260506194547 15 147 3.2 4.8 0.00 0.48 0.48 42 1012.4
20260506194047 15 152 1.6 3.2 0.00 0.48 0.48 42 1012.3
20260506193547 15 135 8.0 16.1 0.00 0.48 0.48 41 1012.1
20260506193048 15 135 4.8 11.3 0.00 0.48 0.48 41 1012.0
20260506192548 15 135 9.7 12.9 0.00 0.48 0.48 41 1011.9
20260506192047 15 135 8.0 9.7 0.00 0.48 0.48 42 1011.8
20260506191547 15 135 3.2 4.8 0.00 0.48 0.48 41 1011.6
20260506191048 15 135 11.3 12.9 0.00 0.48 0.48 41 1011.6
20260506190548 15 135 11.3 16.1 0.00 0.48 0.48 41 1011.6
20260506190047 16 135 9.7 11.3 0.00 0.48 0.48 40 1011.5
20260506185547 16 135 3.2 11.3 0.00 0.48 0.48 39 1011.5
20260506185047 16 135 12.9 22.5 0.00 0.48 0.48 39 1011.5
20260506184546 16 138 3.2 8.0 0.00 0.48 0.48 38 1011.3
20260506184048 16 135 8.0 14.5 0.00 0.48 0.48 37 1011.2
20260506183547 16 135 9.7 12.9 0.00 0.48 0.48 37 1011.2
20260506183048 16 135 8.0 19.3 0.00 0.48 0.48 37 1011.1
20260506182547 16 135 4.8 9.7 0.00 0.48 0.48 40 1011.0
20260506182047 16 135 8.0 9.7 0.00 0.48 0.48 40 1010.8
20260506181548 16 135 11.3 12.9 0.00 0.48 0.48 40 1010.8
20260506181047 16 135 12.9 19.3 0.00 0.48 0.48 37 1010.8
20260506180548 16 138 12.9 19.3 0.00 0.48 0.48 37 1010.6
20260506180048 17 135 9.7 9.7 0.00 0.48 0.48 36 1010.6
20260506175547 17 135 3.2 4.8 0.00 0.48 0.48 35 1010.5
20260506175048 17 135 4.8 9.7 0.00 0.48 0.48 35 1010.4
20260506174548 17 135 11.3 16.1 0.00 0.48 0.48 34 1010.5
20260506174047 17 136 4.8 16.1 0.00 0.48 0.48 31 1010.5
20260506173547 18 135 12.9 14.5 0.00 0.48 0.48 30 1010.2
20260506173048 18 135 19.3 32.2 0.00 0.48 0.48 30 1010.2
20260506172548 18 152 16.1 27.4 0.00 0.48 0.48 30 1010.2
20260506172047 18 153 22.5 33.8 0.00 0.48 0.48 30 1010.2
20260506171547 18 135 14.5 19.3 0.00 0.48 0.48 30 1010.1
20260506171048 18 135 19.3 29.0 0.00 0.48 0.48 30 1010.1
20260506170548 18 135 22.5 38.6 0.00 0.48 0.48 30 1009.9
20260506170047 19 135 19.3 24.1 0.00 0.48 0.48 30 1009.9
20260506165548 18 135 20.9 27.4 0.00 0.48 0.48 30 1009.7
20260506165048 19 135 22.5 27.4 0.00 0.48 0.48 30 1009.7
20260506164547 18 135 29.0 46.7 0.00 0.48 0.48 30 1009.6
20260506164047 20 135 25.7 33.8 0.00 0.48 0.48 30 1009.7
20260506163548 20 135 24.1 33.8 0.00 0.48 0.48 31 1009.6
20260506163048 21 152 12.9 24.1 0.00 0.48 0.48 39 1009.5
20260506162547 22 135 8.0 9.7 0.00 0.48 0.48 42 1009.5
20260506162047 22 117 3.2 4.8 0.00 0.48 0.48 45 1009.3
20260506161548 21 145 1.6 4.8 0.00 0.48 0.48 47 1009.4
20260506161048 20 143 8.0 11.3 0.00 0.48 0.48 45 1009.2
20260506160547 20 133 4.8 8.0 0.00 0.48 0.48 47 1009.2
20260506155550 20 158 4.8 9.7 0.00 0.48 0.48 48 1009.2
20260506155052 20 147 11.3 12.9 0.00 0.48 0.48 48 1009.2
20260506154552 20 122 9.7 12.9 0.00 0.48 0.48 50 1009.2
20260506154051 20 130 11.3 16.1 0.00 0.48 0.48 46 1009.3
20260506153550 21 135 4.8 9.7 0.00 0.48 0.48 39 1009.2
20260506153052 20 143 4.8 8.0 0.00 0.48 0.48 40 1009.3
20260506152551 20 112 8.0 9.7 0.00 0.48 0.48 48 1009.3
20260506152051 19 120 11.3 14.5 0.00 0.48 0.48 50 1009.3
20260506151552 19 112 4.8 8.0 0.00 0.48 0.48 38 1009.5
20260506151051 19 136 1.6 4.8 0.00 0.48 0.48 31 1009.4
20260506150551 20 146 12.9 19.3 0.00 0.48 0.48 30 1009.5
20260506150052 21 135 12.9 16.1 0.00 0.48 0.48 30 1009.4
20260506145552 21 135 4.8 8.0 0.00 0.48 0.48 30 1009.3
20260506145051 20 135 11.3 14.5 0.00 0.48 0.48 30 1009.5
20260506144551 21 135 11.3 16.1 0.00 0.48 0.48 28 1009.5
20260506144052 20 135 12.9 20.9 0.00 0.48 0.48 30 1009.4
20260506143551 20 135 11.3 14.5 0.00 0.48 0.48 30 1009.5
20260506143051 20 135 20.9 32.2 0.00 0.48 0.48 30 1009.4
20260506142551 20 135 11.3 16.1 0.00 0.48 0.48 31 1009.6
20260506142050 19 135 27.4 40.2 0.00 0.48 0.48 30 1009.7
20260506141551 18 135 22.5 37.0 0.00 0.48 0.48 31 1009.8
20260506141050 18 135 12.9 19.3 0.00 0.48 0.48 32 1009.8
20260506140552 18 135 16.1 27.4 0.00 0.48 0.48 32 1009.8
20260506140051 19 135 11.3 16.1 0.00 0.48 0.48 32 1009.8
20260506135551 19 135 16.1 32.2 0.00 0.48 0.48 31 1009.9
20260506135052 20 135 20.9 33.8 0.00 0.48 0.48 31 1009.6
20260506134551 20 135 19.3 27.4 0.00 0.48 0.48 30 1009.5
20260506134050 21 135 19.3 24.1 0.00 0.48 0.48 30 1009.5
20260506133552 21 135 4.8 16.1 0.00 0.48 0.48 32 1009.5
20260506133051 21 135 12.9 19.3 0.00 0.48 0.48 30 1009.6
20260506132551 21 151 8.0 24.1 0.00 0.48 0.48 30 1009.5
20260506132052 21 147 1.6 3.2 0.00 0.48 0.48 31 1009.6
20260506131551 20 135 11.3 12.9 0.00 0.48 0.48 31 1009.7
20260506131050 20 152 12.9 16.1 0.00 0.48 0.48 31 1009.7
20260506130552 21 135 12.9 16.1 0.00 0.48 0.48 37 1009.7
20260506130051 21 135 14.5 16.1 0.00 0.48 0.48 45 1009.9
20260506125551 20 135 4.8 8.0 0.00 0.48 0.48 50 1009.8
20260506125052 20 135 12.9 16.1 0.00 0.48 0.48 50 1009.9
20260506124551 20 139 3.2 8.0 0.00 0.48 0.48 50 1009.7
20260506124051 19 121 3.2 9.7 0.00 0.48 0.48 52 1009.7
20260506123550 19 143 4.8 8.0 0.00 0.48 0.48 54 1009.8
20260506123051 18 141 3.2 4.8 0.00 0.48 0.48 54 1009.9
20260506122552 18 135 4.8 8.0 0.00 0.48 0.48 55 1009.8
20260506122052 18 135 3.2 4.8 0.00 0.48 0.48 53 1009.7
20260506121551 18 135 8.0 9.7 0.00 0.48 0.48 55 1009.7
20260506121051 18 132 8.0 9.7 0.00 0.48 0.48 54 1009.5
20260506120551 18 158 9.7 16.1 0.00 0.48 0.48 53 1009.5
20260506120050 18 158 3.2 4.8 0.00 0.51 0.48 55 1009.5
20260506115552 18 119 4.8 11.3 0.00 0.51 0.48 55 1009.4
20260506115051 18 117 8.0 9.7 0.00 0.51 0.48 53 1009.4
20260506114551 18 136 11.3 14.5 0.00 0.51 0.48 52 1009.2
20260506114052 19 117 11.3 16.1 0.00 0.51 0.48 53 1009.2
20260506113551 19 117 11.3 16.1 0.00 0.51 0.48 51 1009.2
20260506113051 19 123 8.0 11.3 0.00 0.51 0.48 52 1009.3
20260506112550 18 152 11.3 14.5 0.00 0.51 0.48 53 1009.2
20260506112052 18 135 8.0 12.9 0.00 0.51 0.48 52 1009.2
20260506111551 18 120 14.5 19.3 0.00 0.51 0.48 53 1009.2
20260506111051 18 114 12.9 16.1 0.00 0.51 0.48 52 1009.2
20260506110551 19 121 11.3 12.9 0.00 0.51 0.48 52 1009.3
20260506110052 19 135 11.3 12.9 0.00 0.51 0.48 51 1009.4
20260506105551 19 152 4.8 9.7 0.00 0.51 0.48 51 1009.5
20260506105052 19 135 4.8 9.7 0.00 0.51 0.48 53 1009.6
20260506104551 19 116 8.0 11.3 0.00 0.51 0.48 51 1009.5
20260506104051 20 144 3.2 4.8 0.00 0.51 0.48 53 1009.6
20260506103551 18 135 4.8 8.0 0.00 0.51 0.48 51 1009.7
20260506103051 19 135 3.2 8.0 0.00 0.51 0.48 52 1009.9
20260506102550 18 146 4.8 9.7 0.00 0.51 0.48 54 1009.8
20260506102052 19 151 8.0 9.7 0.00 0.51 0.48 52 1009.9
20260506101550 19 135 4.8 4.8 0.00 0.51 0.48 50 1010.0
20260506101051 18 135 3.2 4.8 0.00 0.51 0.48 51 1010.1
20260506100551 18 136 4.8 9.7 0.00 0.51 0.48 56 1010.2
20260506100051 17 112 4.8 9.7 0.00 0.51 0.48 58 1010.2
20260506095551 17 135 3.2 4.8 0.00 0.51 0.48 56 1010.5
20260506095052 17 132 1.6 4.8 0.00 0.51 0.48 59 1010.4
20260506094551 17 112 1.6 1.6 0.00 0.51 0.48 60 1010.5
20260506094051 17 146 3.2 4.8 0.00 0.51 0.48 63 1010.5
20260506093552 16 112 3.2 4.8 0.00 0.51 0.48 63 1010.6
20260506093051 16 144 3.2 4.8 0.00 0.51 0.48 64 1010.6
20260506092551 16 135 1.6 3.2 0.00 0.51 0.48 61 1010.6
20260506092050 16 149 3.2 4.8 0.00 0.51 0.48 66 1010.7
20260506091552 16 134 3.2 4.8 0.00 0.51 0.48 66 1010.7
20260506091051 16 129 1.6 3.2 0.00 0.51 0.48 68 1010.7
20260506090552 16 158 1.6 1.6 0.00 0.51 0.48 65 1010.8
20260506090051 15 135 1.6 4.8 0.00 0.51 0.48 62 1010.9
20260506085551 16 135 4.8 9.7 0.00 0.51 0.48 61 1010.8
20260506085052 16 135 4.8 9.7 0.00 0.51 0.48 62 1010.9
20260506084551 16 135 4.8 9.7 0.00 0.51 0.48 68 1010.8
20260506084052 16 135 3.2 4.8 0.03 0.51 0.48 70 1010.9
20260506083551 15 142 3.2 4.8 0.03 0.51 0.48 70 1010.9
20260506083051 14 135 3.2 9.7 0.03 0.51 0.48 69 1011.0
20260506082552 14 135 9.7 12.9 0.03 0.51 0.48 69 1011.1
20260506082052 14 135 4.8 8.0 0.03 0.51 0.48 71 1011.0
20260506081550 14 135 4.8 9.7 0.03 0.51 0.48 73 1011.0
20260506081053 13 135 4.8 8.0 0.03 0.51 0.48 78 1011.1
20260506080551 13 135 8.0 9.7 0.03 0.51 0.48 80 1011.2
20260506073053 12 135 1.6 3.2 0.00 0.48 0.46 90 1011.1
20260506072551 12 135 0.0 0.0 0.00 0.48 0.46 89 1011.1
20260506072052 12 135 1.6 3.2 0.00 0.48 0.46 89 1011.1
20260506071552 12 135 4.8 9.7 0.00 0.48 0.46 89 1011.0
20260506071052 12 135 4.8 8.0 0.00 0.48 0.46 86 1011.0
20260506070551 12 135 1.6 1.6 0.03 0.48 0.46 86 1011.1
20260506062051 11 135 3.2 4.8 0.05 0.48 0.46 97 1011.1
20260506061552 11 158 4.8 9.7 0.05 0.48 0.46 96 1011.0
20260506061052 11 148 3.2 4.8 0.10 0.48 0.46 96 1011.0
20260506060551 11 135 4.8 9.7 0.10 0.46 0.43 97 1011.2
20260506051051 11 158 4.8 14.5 0.30 0.38 0.36 99 1011.1
20260506050550 11 112 8.0 9.7 0.30 0.36 0.33 99 1011.0
20260506045051 11 135 11.3 19.3 0.20 0.28 0.23 99 1011.2
20260506044550 11 120 11.3 20.9 0.20 0.28 0.23 99 1011.1
20260506044053 11 127 12.9 20.9 0.18 0.23 0.20 99 1011.0
20260506043551 11 135 14.5 22.5 0.15 0.20 0.18 99 1011.2
20260506043051 11 133 16.1 20.9 0.13 0.20 0.15 99 1011.2
20260506042552 11 143 9.7 12.9 0.10 0.18 0.13 99 1011.3
20260506042052 11 121 4.8 12.9 0.05 0.18 0.10 99 1011.2
20260506041551 11 147 3.2 11.3 0.10 0.20 0.10 99 1011.3
20260506041051 11 149 8.0 12.9 0.05 0.18 0.05 99 1011.2
20260506040552 11 156 3.2 9.7 0.03 0.15 0.03 99 1011.2
20260506035556 11 124 12.9 16.1 0.03 0.20 0.03 99 1011.2
20260506035056 11 135 8.0 9.7 0.03 0.20 0.03 99 1011.2
20260506034556 11 135 3.2 4.8 0.03 0.20 0.03 99 1011.3
20260506034056 11 135 4.8 11.3 0.03 0.23 0.03 99 1011.3
20260506033557 11 158 3.2 4.8 0.03 0.23 0.03 99 1011.4
20260506033056 11 144 3.2 8.0 0.03 0.28 0.03 99 1011.5
20260506032557 11 138 8.0 12.9 0.03 0.28 0.03 99 1011.4
20260506032056 11 139 4.8 9.7 0.03 0.28 0.03 99 1011.5
20260506031555 11 149 9.7 20.9 0.00 0.23 0.00 99 1011.5
20260506031057 11 117 11.3 19.3 0.00 0.28 0.00 99 1011.7
20260506030556 11 135 12.9 16.1 0.00 0.28 0.00 99 1011.8
20260506030055 11 158 4.8 8.0 0.00 0.30 0.00 99 1011.9
20260506025557 11 135 4.8 9.7 0.00 0.30 0.00 99 1012.1
20260506025056 11 147 9.7 11.3 0.00 0.30 0.00 99 1012.2
20260506024556 11 117 8.0 12.9 0.00 0.33 0.00 99 1012.3
20260506024055 11 129 8.0 9.7 0.00 0.33 0.00 99 1012.2
20260506023556 11 135 8.0 11.3 0.00 0.36 0.00 99 1012.2
20260506023056 11 135 8.0 9.7 0.00 0.36 0.00 99 1012.1
20260506022555 11 135 4.8 8.0 0.00 0.36 0.00 99 1012.1
20260506022056 11 135 8.0 11.3 0.00 0.38 0.00 99 1012.3
20260506021556 11 152 4.8 14.5 0.00 0.43 0.00 99 1012.5
20260506021055 11 122 4.8 8.0 0.00 0.43 0.00 99 1012.5
20260506020557 11 157 4.8 9.7 0.00 0.43 0.00 99 1012.7
20260506020056 11 135 4.8 4.8 0.00 0.43 0.00 99 1012.6
20260506015555 11 120 3.2 4.8 0.00 0.43 0.00 99 1012.6
20260506015057 11 139 4.8 9.7 0.00 0.43 0.00 98 1012.7
20260506014556 11 158 3.2 8.0 0.00 0.43 0.00 98 1012.7
20260506014056 11 139 3.2 4.8 0.00 0.43 0.00 98 1012.6
20260506013557 11 114 1.6 4.8 0.00 0.43 0.00 98 1012.7
20260506013056 11 135 3.2 4.8 0.00 0.43 0.00 97 1012.7
20260506012558 11 135 4.8 8.0 0.00 0.43 0.00 97 1012.7
20260506012057 11 132 3.2 8.0 0.00 0.43 0.00 97 1012.8
20260506011556 11 124 3.2 4.8 0.00 0.43 0.00 97 1012.8
20260506011056 11 135 4.8 8.0 0.00 0.43 0.00 96 1012.9
20260506010557 11 116 1.6 3.2 0.00 0.43 0.00 96 1013.0
20260506010057 11 135 1.6 3.2 0.00 0.43 0.00 96 1013.1
20260506005556 11 135 1.6 3.2 0.00 0.43 0.00 95 1013.3
20260506005057 11 135 3.2 4.8 0.00 0.43 0.00 95 1013.4
20260506004557 11 155 1.6 3.2 0.00 0.43 0.00 95 1013.6
20260506004056 11 128 3.2 4.8 0.00 0.43 0.00 95 1013.7
20260506003558 11 135 1.6 1.6 0.00 0.43 0.00 94 1013.7
20260506003057 11 158 0.0 1.6 0.00 0.43 0.00 94 1013.7
20260506002557 11 158 3.2 4.8 0.00 0.43 0.00 94 1013.8
20260506002056 11 135 1.6 3.2 0.00 0.43 0.00 94 1013.8
20260506001557 11 158 1.6 1.6 0.00 0.43 0.00 93 1014.0
20260506001056 11 158 0.0 1.6 0.00 0.43 0.00 93 1014.0
20260506000557 11 158 0.0 0.0 0.00 0.43 0.00 93 1014.1
20260506000057 11 158 0.0 1.6 0.00 0.43 0.00 93 1014.1
20260505235556 11 158 0.0 1.6 0.00 0.43 0.00 94 1014.2
20260505235056 11 112 0.0 0.0 0.00 0.43 0.00 94 1014.1
20260505234557 11 112 1.6 1.6 0.00 0.43 0.00 94 1014.2
20260505234056 11 135 0.0 0.0 0.00 0.43 0.00 94 1014.4
20260505233556 11 135 1.6 1.6 0.00 0.43 0.00 94 1014.4
20260505233057 11 145 3.2 4.8 0.00 0.43 0.00 94 1014.5
20260505232557 11 158 1.6 3.2 0.00 0.43 0.00 94 1014.5
20260505232057 11 151 4.8 8.0 0.00 0.43 0.00 94 1014.6
20260505231556 11 158 1.6 3.2 0.00 0.43 0.00 94 1014.5
20260505231057 11 158 1.6 3.2 0.00 0.43 0.00 94 1014.7
20260505230557 11 158 0.0 1.6 0.00 0.46 0.00 94 1014.8
20260505230057 11 158 0.0 0.0 0.00 0.46 0.00 94 1014.8
20260505225557 11 137 0.0 0.0 0.00 0.46 0.00 94 1014.7
20260505225057 11 135 1.6 1.6 0.00 0.46 0.00 94 1014.7
20260505224556 11 135 0.0 1.6 0.00 0.46 0.00 94 1014.7
20260505224057 11 135 1.6 3.2 0.00 0.46 0.00 94 1014.7
20260505223557 11 135 1.6 3.2 0.00 0.46 0.00 94 1014.6
20260505223057 11 135 0.0 1.6 0.00 0.46 0.00 94 1014.7
20260505222556 11 135 0.0 0.0 0.00 0.46 0.00 94 1014.6
20260505222057 11 135 0.0 1.6 0.00 0.46 0.00 95 1014.9
20260505221557 11 135 0.0 0.0 0.00 0.46 0.00 95 1015.0
20260505221056 11 152 4.8 8.0 0.00 0.46 0.00 95 1014.9
20260505220556 11 158 4.8 9.7 0.00 0.46 0.00 95 1015.1
20260505220057 11 158 1.6 3.2 0.00 0.46 0.00 95 1014.9
20260505215557 11 158 1.6 1.6 0.00 0.46 0.46 95 1015.2
20260505215056 11 135 3.2 4.8 0.00 0.46 0.46 95 1015.1
20260505214558 11 135 0.0 1.6 0.00 0.46 0.46 95 1015.1